Wind_Speed
3 3 2 3 6 4 1 4 1 5 5 4 3 2 7 6 8 4 14 13 16 18 15 15 12 11 10 8 8 8 9 10 13 12 13 13 12 12 13 13 15 18 11 13 15 14 15 15 16
2 2 2 3 5 4 6 5 5 5 6 5 4 3 2 5 4 8 19 14 16 17 16 16 14 12 11 9 9 8 9 10 11 11 11 12 12 12 12 12 14 17 12 14 13 12 14 15 17
2 1 6 3 3 4 5 1 4 6 6 5 4 3 3 3 4 15 10 18 18 16 15 16 15 13 13 11 8 8 9 9 10 10 11 11 11 11 10 11 12 15 12 12 11 11 13 15 17
0 3 5 7 3 3 4 1 6 9 4 4 2 4 3 4 12 10 16 19 18 17 16 16 16 15 13 10 8 7 8 8 9 9 9 10 10 10 10 10 10 10 11 10 10 11 13 14 16
3 6 6 3 3 2 1 2 6 7 5 6 5 3 1 7 10 13 18 19 18 17 16 17 16 15 13 11 9 7 7 7 8 8 8 8 8 8 8 9 9 8 8 10 10 12 13 14 16
7 7 6 6 2 1 1 5 8 8 4 5 5 3 3 8 13 14 17 18 17 17 16 19 17 15 12 11 10 8 7 7 7 7 7 7 8 7 7 7 8 8 9 10 11 12 13 14 15
8 7 10 3 1 3 2 7 9 9 7 6 1 5 4 12 13 15 17 18 18 17 17 19 19 17 14 12 11 9 7 7 6 6 5 5 7 7 6 6 7 8 9 10 10 11 11 12 14
6 7 11 8 5 2 6 9 5 10 7 4 4 2 4 13 16 16 17 18 19 19 18 18 18 19 17 15 14 12 9 8 7 6 4 4 6 7 7 7 8 8 9 10 10 10 10 11 13
3 7 9 10 6 3 8 9 5 5 7 5 6 2 4 14 16 18 19 20 22 21 20 20 20 19 17 16 16 14 12 10 9 8 6 4 5 6 8 9 9 9 9 10 10 11 11 11 12
7 9 13 4 4 3 7 10 9 7 13 13 11 9 8 13 18 20 22 23 23 22 22 21 21 20 19 18 17 16 14 14 14 12 8 7 6 5 7 9 8 8 8 10 10 11 12 12 13
5 10 3 1 2 1 4 8 6 9 13 13 14 15 14 14 18 20 21 22 23 21 22 23 23 22 21 20 18 17 17 16 16 14 13 13 9 5 7 7 8 6 6 7 9 11 10 10 10
7 5 4 0 2 2 4 2 6 16 18 4 10 6 17 18 20 22 23 23 22 23 22 23 22 23 22 22 22 18 17 19 18 17 16 16 12 12 9 8 8 8 6 6 5 6 8 9 9
7 3 3 2 3 3 2 7 9 15 18 15 12 12 17 18 20 20 22 21 22 24 24 25 27 26 28 26 22 21 23 21 20 18 20 19 17 16 14 11 12 10 9 8 6 5 7 8 9
2 5 5 4 6 4 5 8 2 7 11 19 17 16 16 19 21 20 22 25 26 26 27 26 27 30 29 28 26 25 24 20 23 22 21 21 19 18 18 17 15 15 14 13 12 10 7 7 8
3 4 7 10 7 3 3 10 16 18 12 10 18 20 20 21 20 24 25 27 27 28 27 29 31 30 32 30 31 26 28 28 20 24 25 23 22 22 20 20 21 20 17 16 15 12 10 9 9
5 4 9 7 8 4 5 12 5 2 13 18 19 20 20 22 24 24 24 26 27 28 29 31 34 33 34 33 32 31 29 30 34 26 24 26 26 25 24 23 24 22 20 18 20 14 12 10 12
7 9 11 7 7 4 10 8 3 2 7 15 16 20 22 24 23 25 27 29 28 30 31 34 35 36 36 34 34 32 30 31 30 32 31 29 27 28 28 25 24 25 24 21 23 19 15 12 15
11 9 8 11 5 7 10 16 16 21 18 19 20 22 22 22 25 26 29 31 30 31 33 34 37 37 37 37 37 36 34 35 36 34 38 34 32 31 31 29 27 28 30 24 26 22 20 16 16
6 7 9 3 3 4 11 18 17 22 26 26 27 29 28 29 27 24 26 31 34 34 36 37 38 39 39 40 40 39 39 39 40 39 40 40 38 35 34 34 32 32 33 31 28 25 24 22 23
10 13 14 14 3 4 13 20 18 20 28 28 28 30 28 28 27 26 26 30 33 36 38 39 40 40 40 41 40 39 38 39 40 38 39 40 43 40 38 39 37 35 33 38 29 30 30 28 25
14 15 13 14 3 12 13 16 16 16 21 21 28 32 30 32 30 25 27 33 34 37 38 38 40 42 41 41 39 38 37 38 40 41 39 41 43 43 41 41 38 38 36 43 28 30 33 29 29
16 12 14 12 8 8 2 10 17 17 18 16 22 26 29 26 23 22 26 29 35 38 39 38 40 42 42 42 42 43 42 41 39 39 39 39 41 43 45 42 40 41 37 39 34 33 37 36 35
5 3 6 6 9 10 14 8 8 11 10 15 20 24 22 21 18 17 19 24 31 31 33 35 39 40 41 44 43 44 44 41 37 36 38 39 39 43 42 42 44 42 43 35 41 36 44 41 38
9 5 4 2 4 9 14 15 14 14 11 8 7 9 8 9 9 11 13 18 22 24 27 29 34 38 40 42 43 45 44 42 40 40 38 39 38 41 44 41 40 40 41 42 36 36 48 41 38
10 7 4 5 6 11 5 6 16 9 9 10 12 15 17 10 9 10 12 11 12 14 17 22 28 33 37 40 42 43 43 41 41 42 39 38 39 41 42 45 46 42 40 34 40 41 41 41 39
14 15 8 9 8 12 5 10 9 3 7 12 16 22 22 18 18 16 14 13 14 15 16 18 21 26 32 35 39 42 40 40 40 41 40 39 38 40 38 40 41 40 39 40 37 36 40 42 43
8 11 14 13 3 5 10 20 19 11 8 17 23 25 25 18 18 21 16 18 19 18 16 16 17 19 23 28 32 36 38 40 41 42 40 38 38 40 40 42 45 43 43 40 38 38 41 43 43
9 2 8 8 6 12 14 19 15 10 13 13 10 14 13 12 13 13 14 14 14 13 11 11 13 15 17 21 25 27 31 36 40 40 41 38 37 38 39 42 44 48 43 42 41 40 41 42 41
8 10 8 6 9 7 12 13 13 8 7 5 5 6 8 13 13 9 12 13 11 9 7 7 9 13 14 16 19 23 26 31 36 38 39 38 37 39 39 40 43 44 43 43 43 42 41 42 42
14 22 22 11 12 7 11 19 0 6 4 5 11 13 7 7 8 5 8 11 8 8 6 4 10 14 15 15 16 19 22 27 33 37 37 36 38 39 37 36 38 41 44 44 44 43 41 42 43
Wind_Direction
244 289 327 290 248 240 305 106 40 128 147 95 122 290 6 17 4 29 145 154 161 168 173 176 173 167 161 139 115 94 85 84 84 82 85 89 90 91 96 98 99 105 112 101 92 94 92 89 92
266 303 291 269 262 262 80 103 183 154 88 143 158 209 245 70 63 125 150 154 160 162 174 178 177 169 166 151 131 116 107 99 96 95 90 89 90 97 103 104 103 103 106 105 101 101 90 92 94
268 238 265 260 288 329 18 119 139 118 133 165 169 219 352 88 130 144 161 152 158 164 170 186 175 170 170 162 146 128 117 112 107 97 91 88 88 89 92 97 107 114 119 107 104 95 93 95 95
294 250 239 253 320 54 347 96 127 152 152 187 236 191 128 144 149 165 157 156 163 164 167 182 174 174 174 169 158 146 129 122 117 109 98 89 84 87 91 97 105 113 119 100 99 94 96 98 96
199 254 251 247 313 344 87 105 180 182 149 173 194 148 134 164 174 158 161 163 169 167 175 179 178 178 180 178 177 167 146 135 129 122 108 92 85 84 91 100 107 110 100 98 98 98 98 97 94
228 269 240 234 108 107 180 173 193 200 177 144 199 213 146 178 164 166 168 171 176 176 179 185 184 186 189 190 189 182 166 152 145 137 120 97 84 85 94 100 104 106 104 106 105 102 103 102 101
249 236 255 282 295 256 193 171 201 210 202 207 284 230 133 178 174 174 176 176 181 185 183 188 188 190 194 196 196 192 183 169 164 158 135 94 78 84 99 106 107 109 109 107 106 105 104 105 104
245 265 249 246 246 271 146 169 203 222 225 194 202 246 190 186 180 174 178 181 186 193 184 185 190 195 197 196 198 199 197 189 186 181 164 116 92 93 88 99 108 112 114 113 111 106 106 108 109
229 248 244 245 248 259 153 192 188 212 228 210 214 254 180 171 177 174 180 188 190 196 191 191 191 194 196 202 200 201 204 201 200 199 191 172 133 123 108 97 96 103 109 110 109 111 114 114 114
228 233 253 5 293 275 182 211 183 210 220 231 229 221 206 186 182 184 188 194 197 198 197 196 197 198 193 199 210 208 209 208 208 206 215 181 160 161 143 123 113 107 108 113 116 119 122 123 121
199 246 322 201 272 241 211 212 203 228 242 233 232 216 212 199 193 197 201 203 203 204 204 199 206 201 200 199 212 209 210 213 210 208 212 215 212 201 193 171 151 139 127 126 130 136 138 140 136
231 248 274 217 208 188 210 250 224 235 242 264 247 233 208 204 203 204 208 208 206 206 208 208 205 205 206 214 212 211 221 212 211 212 214 211 220 214 218 215 196 186 183 168 162 157 157 157 150
230 224 217 213 208 213 270 240 253 255 251 253 244 223 209 210 214 215 214 213 211 210 208 212 206 208 211 211 217 214 216 223 217 222 219 220 215 222 218 217 222 220 211 201 198 206 192 176 165
133 216 226 222 225 222 251 261 271 244 245 239 236 234 222 222 221 218 215 215 213 213 211 210 212 219 217 221 216 214 224 229 224 219 223 225 229 225 220 225 224 223 214 214 203 199 224 212 218
176 225 224 225 220 218 248 253 242 253 245 247 238 240 235 233 228 223 223 218 216 218 217 215 222 223 223 221 221 220 220 224 231 231 228 225 226 226 222 227 224 225 223 223 217 210 198 217 211
227 240 237 127 190 178 195 263 290 237 233 251 250 247 242 238 234 231 225 226 221 220 219 222 227 227 227 226 227 230 221 224 225 230 235 231 228 230 227 229 230 231 229 236 221 213 204 207 216
208 256 218 212 205 173 209 277 253 241 239 257 255 253 249 245 239 234 233 229 229 223 223 224 230 229 230 230 230 233 234 229 226 227 232 228 229 231 232 235 235 233 234 230 227 211 210 217 218
246 231 236 257 152 223 233 253 269 273 260 260 263 262 257 250 243 238 237 237 230 227 227 227 231 231 230 231 233 235 235 233 232 228 232 230 230 232 237 237 237 236 231 229 215 218 211 214 226
291 293 270 227 143 279 261 271 267 272 271 266 261 260 259 255 251 244 235 239 235 233 231 229 230 232 229 230 232 234 235 236 238 235 237 236 232 232 238 240 239 240 239 233 220 223 210 206 218
249 259 262 271 106 243 283 280 276 268 263 259 262 263 260 259 253 242 233 235 238 237 236 234 234 234 233 235 236 236 237 237 242 240 237 235 231 230 232 239 238 242 240 223 221 224 210 209 222
236 246 257 263 294 239 286 273 266 249 250 265 260 261 262 257 255 247 234 238 239 238 236 238 239 238 236 235 234 236 238 240 241 241 238 234 232 228 229 234 238 242 236 225 241 226 224 228 218
249 239 253 269 281 272 223 285 284 284 272 248 260 262 258 257 257 252 241 239 249 247 244 241 240 238 237 237 235 238 242 243 247 245 243 238 234 225 229 232 232 241 241 230 231 235 236 229 225
250 30 239 258 261 290 239 266 266 255 262 262 257 261 268 268 262 254 245 240 240 251 247 242 238 238 237 237 237 238 242 245 244 244 243 238 237 226 230 226 236 233 234 230 237 230 231 223 232
134 120 120 221 275 263 257 236 263 251 269 258 265 258 251 269 262 261 242 233 241 239 240 239 238 238 236 236 237 238 242 241 240 243 243 238 236 226 228 226 227 234 231 236 240 242 225 226 231
201 193 240 239 202 252 43 289 252 293 279 251 271 293 290 273 281 265 256 253 250 248 246 242 240 239 239 240 240 241 241 241 241 244 244 239 235 228 228 228 231 232 235 243 238 241 224 228 229
198 204 212 237 243 267 103 238 272 249 294 285 259 267 280 286 282 270 255 251 255 246 243 241 244 241 239 239 241 240 241 240 241 245 246 244 242 233 229 221 224 232 235 229 235 240 237 236 230
177 221 245 268 296 284 253 266 272 232 234 262 269 272 272 284 276 275 264 251 246 245 241 242 248 248 243 242 243 243 241 241 239 246 248 245 243 233 229 231 229 226 227 230 234 237 240 233 229
235 307 208 218 232 238 256 257 258 289 273 266 255 277 290 303 295 273 245 240 235 232 236 247 256 259 254 251 253 253 249 246 243 244 246 246 242 233 228 228 229 226 229 231 232 233 234 231 228
190 220 224 246 227 245 256 260 271 302 13 332 352 308 306 314 316 285 246 236 219 221 234 258 269 266 264 259 259 258 254 249 246 244 244 244 243 238 230 230 233 230 235 232 229 232 234 231 226
261 226 218 220 223 240 267 269 259 334 3 340 322 324 317 317 332 302 235 230 221 222 227 274 285 269 261 264 263 263 259 254 249 244 244 243 241 238 233 234 235 236 234 232 234 231 234 230 224
Height
1530 1530 1530 1530 1529 1523 1524 1528 1528 1533 1535 1538 1540 1540 1540 1542 1541 1548 1552 1554 1557 1559 1561 1562 1565 1567 1568 1569 1569 1569 1569 1569 1568 1568 1568 1568 1569 1569 1569 1568 1568 1570 1570 1570 1569 1569 1568 1568 1567
1530 1531 1531 1527 1526 1525 1520 1523 1531 1531 1537 1540 1542 1544 1542 1542 1547 1548 1552 1554 1557 1560 1562 1564 1565 1567 1569 1570 1571 1572 1572 1571 1571 1571 1571 1571 1570 1570 1570 1570 1570 1571 1572 1571 1571 1571 1571 1571 1571
1531 1531 1530 1523 1523 1524 1526 1525 1525 1536 1539 1540 1542 1544 1544 1545 1549 1550 1552 1554 1558 1561 1563 1564 1566 1567 1570 1571 1572 1573 1573 1574 1573 1573 1573 1572 1572 1572 1572 1572 1572 1573 1573 1573 1573 1573 1573 1573 1573
1533 1534 1531 1525 1523 1521 1525 1526 1529 1537 1541 1542 1541 1541 1546 1546 1549 1551 1552 1555 1558 1561 1563 1563 1565 1568 1570 1571 1572 1574 1574 1574 1575 1574 1575 1574 1573 1574 1573 1573 1574 1574 1575 1573 1575 1576 1575 1576 1575
1533 1531 1524 1525 1524 1523 1527 1529 1532 1535 1537 1540 1542 1539 1544 1546 1547 1548 1552 1556 1559 1560 1562 1563 1565 1568 1570 1571 1573 1574 1575 1575 1576 1576 1576 1576 1576 1576 1576 1576 1575 1576 1576 1576 1577 1577 1578 1578 1577
1532 1529 1526 1525 1520 1524 1528 1531 1533 1535 1537 1541 1543 1542 1545 1546 1547 1550 1553 1556 1560 1561 1562 1563 1565 1568 1570 1571 1573 1574 1575 1576 1577 1577 1577 1577 1577 1577 1577 1577 1577 1578 1578 1578 1579 1579 1580 1580 1581
1531 1526 1523 1522 1524 1526 1525 1532 1533 1534 1537 1539 1541 1540 1544 1546 1548 1550 1553 1557 1560 1561 1562 1563 1565 1567 1570 1572 1573 1575 1576 1576 1577 1578 1578 1578 1578 1578 1579 1579 1579 1579 1580 1580 1580 1581 1582 1583 1583
1531 1526 1522 1523 1521 1526 1527 1531 1533 1534 1536 1539 1541 1538 1539 1544 1546 1549 1553 1556 1559 1559 1561 1562 1564 1566 1568 1570 1572 1574 1575 1576 1577 1578 1579 1579 1580 1580 1580 1580 1580 1580 1581 1582 1582 1582 1584 1585 1585
1531 1528 1525 1522 1524 1522 1528 1530 1534 1535 1537 1539 1540 1540 1540 1543 1544 1548 1552 1554 1556 1557 1559 1561 1563 1565 1567 1569 1571 1573 1575 1576 1577 1578 1579 1580 1581 1581 1581 1581 1582 1582 1583 1583 1583 1584 1586 1586 1587
1529 1526 1521 1519 1521 1523 1528 1529 1531 1536 1535 1537 1538 1538 1539 1540 1542 1545 1548 1551 1553 1555 1557 1560 1561 1564 1566 1568 1569 1572 1573 1574 1575 1577 1579 1580 1581 1581 1582 1582 1584 1584 1584 1584 1585 1586 1587 1588 1588
1526 1525 1520 1524 1528 1528 1528 1530 1532 1533 1530 1531 1532 1535 1536 1538 1541 1544 1547 1549 1551 1554 1556 1558 1560 1562 1565 1566 1567 1570 1571 1573 1574 1575 1577 1579 1580 1582 1582 1582 1583 1584 1585 1586 1586 1587 1588 1589 1589
1526 1526 1527 1528 1530 1529 1529 1529 1530 1531 1529 1530 1531 1533 1533 1535 1538 1540 1543 1546 1549 1552 1554 1555 1558 1560 1562 1564 1565 1568 1569 1571 1572 1574 1575 1576 1579 1580 1581 1582 1583 1584 1585 1586 1587 1588 1588 1589 1589
1525 1526 1529 1529 1530 1529 1530 1528 1528 1526 1528 1529 1529 1530 1532 1533 1535 1538 1541 1544 1547 1548 1550 1551 1553 1556 1558 1560 1562 1565 1568 1568 1571 1572 1573 1574 1576 1578 1579 1581 1583 1584 1584 1585 1587 1588 1588 1588 1589
1525 1527 1527 1529 1530 1529 1530 1527 1527 1522 1524 1526 1527 1528 1529 1530 1531 1534 1536 1538 1541 1543 1544 1546 1548 1550 1553 1556 1559 1562 1565 1566 1567 1569 1570 1571 1573 1575 1577 1578 1580 1581 1583 1584 1585 1586 1587 1588 1589
1527 1526 1525 1526 1528 1527 1529 1525 1519 1519 1521 1523 1523 1524 1525 1527 1528 1528 1530 1531 1534 1536 1538 1540 1542 1545 1548 1551 1555 1557 1559 1562 1564 1565 1567 1568 1569 1571 1573 1576 1577 1578 1580 1582 1583 1584 1585 1587 1588
1525 1525 1523 1519 1526 1526 1528 1518 1509 1513 1516 1518 1519 1520 1520 1521 1522 1523 1525 1526 1528 1531 1532 1535 1536 1540 1543 1546 1549 1551 1554 1556 1559 1561 1562 1565 1566 1567 1569 1572 1574 1576 1577 1579 1580 1581 1583 1584 1587
1523 1517 1518 1517 1523 1523 1524 1514 1509 1513 1515 1515 1514 1514 1514 1515 1516 1516 1517 1519 1520 1523 1526 1528 1530 1533 1537 1541 1544 1546 1548 1550 1553 1556 1557 1559 1561 1563 1564 1567 1570 1572 1574 1575 1578 1579 1580 1582 1584
1516 1521 1516 1519 1522 1523 1518 1514 1512 1511 1511 1511 1510 1509 1508 1509 1509 1511 1511 1512 1514 1516 1519 1521 1523 1526 1530 1534 1537 1539 1541 1543 1546 1548 1549 1554 1556 1558 1560 1562 1565 1567 1569 1571 1573 1576 1577 1579 1581
1519 1517 1517 1511 1521 1523 1513 1507 1505 1505 1503 1502 1502 1501 1501 1501 1503 1504 1504 1505 1506 1509 1510 1513 1515 1519 1523 1525 1527 1531 1532 1535 1537 1541 1543 1547 1550 1553 1555 1557 1560 1561 1564 1565 1567 1571 1574 1575 1577
1522 1521 1518 1512 1519 1525 1511 1503 1498 1499 1493 1494 1494 1492 1493 1493 1494 1497 1498 1497 1497 1500 1502 1505 1508 1511 1514 1517 1521 1524 1527 1528 1530 1534 1536 1539 1542 1545 1548 1550 1553 1555 1559 1559 1561 1564 1567 1571 1572
1519 1519 1516 1515 1520 1518 1516 1499 1487 1483 1485 1487 1485 1485 1485 1484 1486 1489 1491 1490 1490 1491 1493 1497 1500 1503 1506 1510 1514 1517 1519 1520 1521 1523 1527 1530 1534 1537 1541 1544 1547 1549 1551 1552 1555 1559 1561 1564 1567
1518 1510 1517 1517 1524 1517 1514 1500 1480 1479 1478 1477 1478 1478 1477 1477 1480 1481 1483 1484 1483 1484 1487 1490 1493 1495 1498 1502 1504 1506 1508 1510 1513 1517 1520 1523 1525 1530 1533 1536 1539 1542 1544 1547 1549 1553 1556 1557 1558
1514 1518 1519 1521 1522 1519 1511 1518 1479 1471 1474 1472 1470 1470 1470 1471 1473 1475 1475 1476 1478 1478 1479 1482 1486 1488 1491 1493 1495 1498 1499 1503 1506 1508 1511 1515 1517 1522 1525 1529 1532 1534 1536 1540 1544 1546 1548 1549 1554
1520 1521 1523 1523 1521 1521 1498 1498 1470 1469 1463 1461 1464 1465 1467 1467 1468 1468 1469 1469 1469 1471 1472 1475 1478 1481 1484 1486 1489 1490 1493 1496 1498 1499 1502 1506 1509 1513 1517 1521 1524 1527 1530 1532 1536 1538 1540 1543 1546
1519 1519 1524 1525 1527 1510 1496 1499 1464 1463 1462 1464 1462 1463 1464 1464 1464 1465 1464 1465 1466 1466 1466 1468 1471 1473 1475 1478 1482 1485 1487 1489 1491 1492 1494 1497 1500 1503 1507 1512 1517 1520 1523 1528 1531 1531 1534 1537 1540
1515 1509 1513 1521 1512 1497 1514 1496 1460 1456 1459 1461 1461 1461 1460 1461 1461 1461 1462 1462 1462 1462 1463 1463 1465 1466 1468 1469 1473 1477 1480 1483 1484 1485 1487 1490 1492 1497 1502 1505 1511 1514 1518 1522 1525 1527 1529 1531 1533
1511 1514 1500 1511 1518 1520 1489 1464 1452 1454 1460 1459 1458 1458 1456 1457 1456 1456 1457 1457 1457 1458 1458 1460 1461 1464 1465 1466 1466 1469 1473 1475 1477 1479 1481 1483 1486 1489 1494 1499 1502 1506 1510 1514 1517 1519 1522 1523 1526
1498 1498 1512 1511 1517 1512 1481 1473 1458 1452 1453 1453 1454 1454 1454 1454 1453 1452 1452 1452 1454 1455 1456 1457 1458 1460 1461 1462 1463 1464 1465 1467 1468 1471 1472 1475 1479 1482 1486 1491 1494 1498 1503 1507 1509 1511 1513 1515 1520
1500 1501 1499 1492 1493 1493 1491 1463 1442 1445 1449 1451 1454 1456 1454 1451 1450 1450 1452 1451 1451 1453 1455 1456 1457 1457 1458 1458 1458 1459 1459 1460 1461 1462 1464 1468 1472 1474 1480 1485 1489 1491 1497 1500 1501 1504 1507 1509 1513
1483 1481 1484 1490 1489 1488 1489 1465 1443 1449 1454 1455 1454 1454 1453 1454 1451 1450 1450 1451 1452 1453 1454 1454 1454 1454 1454 1454 1453 1453 1453 1454 1455 1455 1457 1460 1464 1467 1474 1479 1482 1486 1489 1492 1494 1497 1500 1503 1507